EN

Hourly Weather Gogolin

Today, 16 May, Sunday

Time Temperature Precipitation Wind Pressure Humidity
00:00 +12°C° 0.4 mm 2 mps 744 mmHg 95%
01:00 +12°C° 0 mm 2 mps 743 mmHg 96%
02:00 +10°C° 0.5 mm 2 mps 743 mmHg 96%
03:00 +10°C° 0.5 mm 2 mps 743 mmHg 96%
04:00 +11°C° 0.5 mm 1 mps 743 mmHg 97%
05:00 +12°C° 1.5 mm 2 mps 743 mmHg 96%
06:00 +12°C° 1.5 mm 2 mps 743 mmHg 95%
07:00 +12°C° 1.5 mm 2 mps 743 mmHg 94%
08:00 +13°C° 0.3 mm 2 mps 743 mmHg 88%
09:00 +14°C° 0.3 mm 2 mps 743 mmHg 82%
10:00 +16°C° 0.3 mm 3 mps 743 mmHg 77%
11:00 +16°C° 0.6 mm 3 mps 743 mmHg 74%
12:00 +17°C° 0.6 mm 3 mps 742 mmHg 71%
13:00 +17°C° 0.6 mm 3 mps 742 mmHg 69%
14:00 +17°C° 0.4 mm 3 mps 742 mmHg 68%
15:00 +17°C° 0.4 mm 4 mps 742 mmHg 67%
16:00 +17°C° 0.4 mm 4 mps 742 mmHg 66%
17:00 +14°C° 0.3 mm 3 mps 742 mmHg 73%
18:00 +13°C° 0.3 mm 3 mps 742 mmHg 79%
19:00 +13°C° 0.3 mm 2 mps 742 mmHg 86%
20:00 +12°C° 0 mm 2 mps 742 mmHg 88%
21:00 +10°C° 0 mm 2 mps 742 mmHg 89%
22:00 +9°C° 0 mm 2 mps 743 mmHg 91%
23:00 +9°C° 0 mm 2 mps 743 mmHg 91%

Tomorrow, 17 May, Monday

Time Temperature Precipitation Wind Pressure Humidity
00:00 +8°C° 0 mm 2 mps 743 mmHg 92%
01:00 +8°C° 0 mm 2 mps 743 mmHg 92%
02:00 +8°C° 0 mm 2 mps 743 mmHg 92%
03:00 +8°C° 0 mm 2 mps 743 mmHg 93%
04:00 +7°C° 0 mm 2 mps 743 mmHg 93%
05:00 +9°C° 0 mm 2 mps 743 mmHg 89%
06:00 +10°C° 0 mm 2 mps 743 mmHg 85%
07:00 +13°C° 0 mm 2 mps 743 mmHg 80%
08:00 +14°C° 0 mm 2 mps 743 mmHg 74%
09:00 +16°C° 0 mm 2 mps 743 mmHg 69%
10:00 +17°C° 0 mm 3 mps 743 mmHg 63%
11:00 +17°C° 0.1 mm 3 mps 743 mmHg 63%
12:00 +17°C° 0.1 mm 3 mps 743 mmHg 64%
13:00 +15°C° 0.1 mm 4 mps 743 mmHg 65%
14:00 +14°C° 1.2 mm 3 mps 743 mmHg 75%
15:00 +12°C° 1.2 mm 3 mps 744 mmHg 85%
16:00 +12°C° 1.2 mm 2 mps 744 mmHg 94%
17:00 +12°C° 0.5 mm 1 mps 744 mmHg 95%
18:00 +12°C° 0.5 mm 1 mps 743 mmHg 95%
19:00 +11°C° 0.5 mm 0 mps 743 mmHg 96%
20:00 +10°C° 1.2 mm 0 mps 743 mmHg 96%
21:00 +10°C° 1.2 mm 0 mps 743 mmHg 96%
22:00 +10°C° 1.2 mm 0 mps 743 mmHg 97%
23:00 +11°C° 0.6 mm 1 mps 743 mmHg 97%

Day after tomorrow, 18 May, Tuesday

Time Temperature Precipitation Wind Pressure Humidity
00:00 +11°C° 0.6 mm 1 mps 743 mmHg 97%
01:00 +11°C° 0.6 mm 1 mps 743 mmHg 97%
02:00 +11°C° 0 mm 1 mps 743 mmHg 97%
03:00 +10°C° 0 mm 1 mps 743 mmHg 97%
04:00 +9°C° 0 mm 2 mps 743 mmHg 97%
05:00 +10°C° 0 mm 2 mps 743 mmHg 95%
06:00 +10°C° 0 mm 3 mps 744 mmHg 93%
07:00 +11°C° 0 mm 3 mps 744 mmHg 92%
08:00 +12°C° 0.3 mm 3 mps 744 mmHg 87%
09:00 +13°C° 0.3 mm 4 mps 744 mmHg 83%
10:00 +13°C° 0.3 mm 4 mps 744 mmHg 78%
11:00 +14°C° 0.4 mm 4 mps 744 mmHg 75%
12:00 +15°C° 0.4 mm 4 mps 744 mmHg 72%
13:00 +15°C° 0.4 mm 5 mps 744 mmHg 69%
14:00 +15°C° 0.5 mm 4 mps 744 mmHg 72%
15:00 +14°C° 0.5 mm 4 mps 745 mmHg 75%
16:00 +14°C° 0.5 mm 4 mps 745 mmHg 78%
17:00 +13°C° 0.4 mm 4 mps 745 mmHg 81%
18:00 +12°C° 0.4 mm 3 mps 746 mmHg 85%
19:00 +11°C° 0.4 mm 3 mps 746 mmHg 88%
20:00 +10°C° 0 mm 3 mps 746 mmHg 90%
21:00 +10°C° 0 mm 2 mps 746 mmHg 92%
22:00 +9°C° 0 mm 2 mps 747 mmHg 94%
23:00 +8°C° 0 mm 2 mps 747 mmHg 94%

19 May, Wednesday

Time Temperature Precipitation Wind Pressure Humidity
00:00 +8°C° 0 mm 2 mps 747 mmHg 94%
01:00 +7°C° 0 mm 2 mps 747 mmHg 95%
02:00 +7°C° 0 mm 2 mps 747 mmHg 95%
03:00 +7°C° 0 mm 2 mps 747 mmHg 95%
04:00 +6°C° 0 mm 2 mps 748 mmHg 96%
05:00 +8°C° 0 mm 3 mps 748 mmHg 92%
06:00 +9°C° 0 mm 3 mps 748 mmHg 88%
07:00 +11°C° 0 mm 3 mps 748 mmHg 85%
08:00 +12°C° 0.1 mm 3 mps 748 mmHg 78%
09:00 +13°C° 0.1 mm 4 mps 748 mmHg 71%
10:00 +15°C° 0.1 mm 4 mps 748 mmHg 64%
11:00 +14°C° 0.4 mm 4 mps 748 mmHg 69%
12:00 +13°C° 0.4 mm 4 mps 748 mmHg 74%
13:00 +13°C° 0.4 mm 5 mps 748 mmHg 79%
14:00 +13°C° 0.4 mm 5 mps 749 mmHg 77%
15:00 +13°C° 0.4 mm 4 mps 749 mmHg 75%
16:00 +13°C° 0.4 mm 4 mps 749 mmHg 72%
17:00 +12°C° 0.1 mm 4 mps 749 mmHg 74%
18:00 +11°C° 0.1 mm 3 mps 749 mmHg 75%
19:00 +11°C° 0.1 mm 3 mps 749 mmHg 76%
20:00 +9°C° 0 mm 3 mps 749 mmHg 79%
21:00 +8°C° 0 mm 3 mps 750 mmHg 82%
22:00 +7°C° 0 mm 3 mps 750 mmHg 86%
23:00 +5°C° 0 mm 3 mps 750 mmHg 88%

20 May, Thursday

Time Temperature Precipitation Wind Pressure Humidity
00:00 +6°C° 0 mm 2 mps 750 mmHg 90%
01:00 +5°C° 0 mm 2 mps 750 mmHg 92%
02:00 +5°C° 0 mm 2 mps 750 mmHg 92%
03:00 +5°C° 0 mm 2 mps 750 mmHg 92%
04:00 +5°C° 0 mm 2 mps 750 mmHg 92%
05:00 +7°C° 0 mm 3 mps 750 mmHg 88%
06:00 +8°C° 0 mm 3 mps 750 mmHg 83%
07:00 +10°C° 0 mm 3 mps 751 mmHg 78%
08:00 +12°C° 0.1 mm 4 mps 751 mmHg 71%
09:00 +13°C° 0.1 mm 4 mps 750 mmHg 64%
10:00 +14°C° 0.1 mm 5 mps 750 mmHg 57%
11:00 +15°C° 0.1 mm 5 mps 750 mmHg 56%
12:00 +15°C° 0.1 mm 5 mps 750 mmHg 54%
13:00 +15°C° 0.1 mm 6 mps 750 mmHg 53%
14:00 +15°C° 0.1 mm 5 mps 750 mmHg 55%
15:00 +15°C° 0.1 mm 5 mps 750 mmHg 57%
16:00 +14°C° 0.1 mm 5 mps 750 mmHg 59%
17:00 +13°C° 0.1 mm 4 mps 750 mmHg 65%
18:00 +12°C° 0.1 mm 3 mps 750 mmHg 72%
19:00 +11°C° 0.1 mm 3 mps 751 mmHg 79%
20:00 +10°C° 0 mm 3 mps 751 mmHg 83%
21:00 +8°C° 0 mm 3 mps 751 mmHg 87%
22:00 +7°C° 0 mm 3 mps 751 mmHg 90%
23:00 +7°C° 0 mm 3 mps 750 mmHg 92%

21 May, Friday

Time Temperature Precipitation Wind Pressure Humidity
00:00 +7°C° 0 mm 3 mps 750 mmHg 93%
01:00 +5°C° 0 mm 3 mps 750 mmHg 95%
02:00 +5°C° 0 mm 3 mps 750 mmHg 95%
03:00 +5°C° 0 mm 3 mps 750 mmHg 95%
04:00 +5°C° 0 mm 2 mps 750 mmHg 95%
05:00 +7°C° 0 mm 3 mps 750 mmHg 88%
06:00 +7°C° 0 mm 4 mps 750 mmHg 81%
07:00 +10°C° 0 mm 4 mps 750 mmHg 74%
08:00 +11°C° 0 mm 4 mps 750 mmHg 69%
09:00 +12°C° 0 mm 5 mps 750 mmHg 64%
10:00 +13°C° 0 mm 5 mps 750 mmHg 58%
11:00 +14°C° 0.1 mm 5 mps 749 mmHg 59%
12:00 +14°C° 0.1 mm 5 mps 749 mmHg 59%
13:00 +15°C° 0.1 mm 5 mps 748 mmHg 60%
14:00 +14°C° 0.2 mm 5 mps 748 mmHg 64%
15:00 +14°C° 0.2 mm 4 mps 748 mmHg 69%
16:00 +14°C° 0.2 mm 4 mps 747 mmHg 73%
17:00 +13°C° 0.1 mm 4 mps 747 mmHg 77%
18:00 +13°C° 0.1 mm 3 mps 746 mmHg 80%
19:00 +12°C° 0.1 mm 3 mps 746 mmHg 83%
20:00 +11°C° 0 mm 3 mps 746 mmHg 85%
21:00 +10°C° 0 mm 3 mps 745 mmHg 87%
22:00 +10°C° 0 mm 3 mps 745 mmHg 89%
23:00 +10°C° 0 mm 4 mps 745 mmHg 86%
Show more